Location: Pian di Sc�
(43.6333°N, 11.5500°E)
Time: 10:15:14
(UTC+00:00)

SL-16 R/B - Pass Details

Date: 07 August 2020
Orbit: 985 x 1007 km, 99.5° (Epoch: 18 September)

Event Time Altitude Azimuth Distance (km) Brightness Sun altitude
Exits shadow 02:13:43 23° 255° (WSW) 1,994 3.6 -18.0°
Maximum altitude 02:14:33 24° 267° (W) 1,966 3.7 -17.9°
Drops below altitude 10° 02:19:28 10° 319° (NW) 2,789 4.9 -17.3°
Sets 02:22:31 0° 333° (NNW) 3,742 5.8 -16.9°
